TimeEST,TemperatureF,Dew PointF,Humidity,Sea Level PressureIn,VisibilityMPH,Wind Direction,Wind SpeedMPH,Gust SpeedMPH,PrecipitationIn,Events,Conditions,WindDirDegrees,DateUTC
12:15 AM,33.8,33.8,100,30.08,3.0,Calm,Calm,-,N/A,,Mist,0,2012-11-08 05:15:00
12:55 AM,32.0,32.0,100,30.09,5.0,Calm,Calm,-,N/A,,Mist,0,2012-11-08 05:55:00
1:15 AM,32.0,32.0,100,30.09,5.0,Calm,Calm,-,N/A,,Mist,0,2012-11-08 06:15:00
1:35 AM,32.0,32.0,100,30.09,3.0,Calm,Calm,-,N/A,,Mist,0,2012-11-08 06:35:00
2:15 AM,32.0,32.0,100,30.10,2.5,Calm,Calm,-,N/A,,Mist,0,2012-11-08 07:15:00
2:35 AM,32.0,32.0,100,30.10,2.5,Calm,Calm,-,N/A,,Mist,0,2012-11-08 07:35:00
2:55 AM,32.0,32.0,100,30.11,3.0,Calm,Calm,-,N/A,,Mist,0,2012-11-08 07:55:00
3:15 AM,32.0,32.0,100,30.11,1.8,Calm,Calm,-,N/A,,Mist,0,2012-11-08 08:15:00
3:35 AM,32.0,32.0,100,30.12,0.2,Calm,Calm,-,N/A,Fog,Fog,0,2012-11-08 08:35:00
3:55 AM,30.2,30.2,100,30.12,0.2,Calm,Calm,-,N/A,Fog,Light Freezing Fog,0,2012-11-08 08:55:00
4:15 AM,28.4,28.4,100,30.13,0.8,Calm,Calm,-,N/A,,Mist,0,2012-11-08 09:15:00
4:35 AM,28.4,28.4,100,30.14,0.5,Calm,Calm,-,N/A,Fog,Light Freezing Fog,0,2012-11-08 09:35:00
4:55 AM,30.2,30.2,100,30.14,0.2,Calm,Calm,-,N/A,Fog,Light Freezing Fog,0,2012-11-08 09:55:00
5:15 AM,28.4,28.4,100,30.15,0.2,Calm,Calm,-,N/A,Fog,Light Freezing Fog,0,2012-11-08 10:15:00
5:35 AM,28.4,28.4,100,30.15,0.2,Calm,Calm,-,N/A,Fog,Light Freezing Fog,0,2012-11-08 10:35:00
5:55 AM,26.6,26.6,100,30.16,0.2,Calm,Calm,-,N/A,Fog,Light Freezing Fog,0,2012-11-08 10:55:00
6:15 AM,28.4,28.4,100,30.17,0.2,Calm,Calm,-,N/A,Fog,Light Freezing Fog,0,2012-11-08 11:15:00
6:35 AM,26.6,26.6,100,30.17,0.2,Calm,Calm,-,N/A,Fog,Light Freezing Fog,0,2012-11-08 11:35:00
6:55 AM,26.6,26.6,100,30.18,0.8,Calm,Calm,-,N/A,,Mist,0,2012-11-08 11:55:00
7:15 AM,26.6,26.6,100,30.19,0.2,Calm,Calm,-,N/A,Fog,Light Freezing Fog,0,2012-11-08 12:15:00
7:35 AM,26.6,26.6,100,30.20,0.2,Calm,Calm,-,N/A,Fog,Light Freezing Fog,0,2012-11-08 12:35:00
7:55 AM,28.4,28.4,100,30.21,0.2,Calm,Calm,-,N/A,Fog,Light Freezing Fog,0,2012-11-08 12:55:00
8:15 AM,28.4,28.4,100,30.22,0.2,Calm,Calm,-,N/A,Fog,Light Freezing Fog,0,2012-11-08 13:15:00
8:35 AM,28.4,28.4,100,30.23,0.2,Calm,Calm,-,N/A,Fog,Light Freezing Fog,0,2012-11-08 13:35:00
8:55 AM,30.2,30.2,100,30.23,0.2,Calm,Calm,-,N/A,Fog,Light Freezing Fog,0,2012-11-08 13:55:00
9:15 AM,32.0,32.0,100,30.23,0.2,Calm,Calm,-,N/A,Rain,Light Rain,0,2012-11-08 14:15:00
9:35 AM,32.0,32.0,100,30.23,0.2,Calm,Calm,-,N/A,Fog,Fog,0,2012-11-08 14:35:00
9:55 AM,33.8,33.8,100,30.23,0.2,Calm,Calm,-,N/A,Fog,Fog,0,2012-11-08 14:55:00
10:15 AM,35.6,35.6,100,30.24,1.2,Calm,Calm,-,N/A,,Mostly Cloudy,0,2012-11-08 15:15:00
10:35 AM,37.4,37.4,100,30.24,5.0,Calm,Calm,-,N/A,,Partly Cloudy,0,2012-11-08 15:35:00
10:55 AM,41.0,41.0,100,30.24,8.0,Calm,Calm,-,N/A,,Clear,0,2012-11-08 15:55:00
11:15 AM,42.8,42.8,100,30.24,10.0,WSW,3.5,-,N/A,,Clear,250,2012-11-08 16:15:00
11:35 AM,46.4,39.2,76,30.23,10.0,North,3.5,-,N/A,,Clear,10,2012-11-08 16:35:00
11:55 AM,48.2,32.0,54,30.23,10.0,North,6.9,-,N/A,,Clear,10,2012-11-08 16:55:00
12:15 PM,50.0,32.0,50,30.22,10.0,North,3.5,-,N/A,,Clear,360,2012-11-08 17:15:00
12:35 PM,50.0,32.0,50,30.21,10.0,Calm,Calm,-,N/A,,Clear,0,2012-11-08 17:35:00
12:55 PM,50.0,32.0,50,30.20,10.0,Calm,Calm,-,N/A,,Clear,0,2012-11-08 17:55:00
1:15 PM,51.8,32.0,47,30.20,10.0,NNW,5.8,-,N/A,,Clear,330,2012-11-08 18:15:00
1:35 PM,53.6,32.0,44,30.18,10.0,Calm,Calm,-,N/A,,Clear,0,2012-11-08 18:35:00
1:55 PM,53.6,32.0,44,30.18,10.0,West,3.5,-,N/A,,Clear,270,2012-11-08 18:55:00
2:15 PM,53.6,32.0,44,30.17,10.0,Calm,Calm,-,N/A,,Clear,0,2012-11-08 19:15:00
2:35 PM,53.6,28.4,38,30.17,10.0,WNW,3.5,-,N/A,,Clear,290,2012-11-08 19:35:00
2:55 PM,53.6,30.2,41,30.17,10.0,Calm,Calm,-,N/A,,Clear,0,2012-11-08 19:55:00
3:15 PM,53.6,32.0,44,30.16,10.0,SW,3.5,-,N/A,,Clear,220,2012-11-08 20:15:00
3:35 PM,55.4,30.2,38,30.16,10.0,Calm,Calm,-,N/A,,Clear,0,2012-11-08 20:35:00
3:55 PM,53.6,28.4,38,30.17,10.0,West,3.5,-,N/A,,Clear,260,2012-11-08 20:55:00
4:15 PM,55.4,32.0,41,30.18,10.0,WNW,5.8,-,N/A,,Clear,290,2012-11-08 21:15:00
4:35 PM,53.6,30.2,41,30.18,10.0,WNW,4.6,-,N/A,,Clear,290,2012-11-08 21:35:00
4:55 PM,51.8,32.0,47,30.18,10.0,WNW,4.6,-,N/A,,Clear,300,2012-11-08 21:55:00
5:15 PM,50.0,32.0,50,30.18,10.0,West,4.6,-,N/A,,Clear,280,2012-11-08 22:15:00
5:35 PM,48.2,32.0,54,30.18,10.0,WNW,3.5,-,N/A,,Unknown,290,2012-11-08 22:35:00
5:55 PM,46.4,32.0,57,30.19,10.0,WNW,4.6,-,N/A,,Unknown,300,2012-11-08 22:55:00
6:15 PM,44.6,32.0,61,30.19,10.0,NW,4.6,-,N/A,,Unknown,310,2012-11-08 23:15:00
6:35 PM,44.6,32.0,61,30.20,10.0,West,4.6,-,N/A,,Unknown,280,2012-11-08 23:35:00
6:55 PM,44.6,32.0,61,30.21,10.0,Calm,Calm,-,N/A,,Unknown,0,2012-11-08 23:55:00
7:15 PM,44.6,33.8,66,30.21,10.0,Calm,Calm,-,N/A,,Unknown,0,2012-11-09 00:15:00
7:35 PM,41.0,33.8,76,30.21,10.0,Calm,Calm,-,N/A,,Unknown,0,2012-11-09 00:35:00
7:55 PM,39.2,32.0,75,30.21,10.0,Calm,Calm,-,N/A,,Unknown,0,2012-11-09 00:55:00
8:15 PM,37.4,32.0,81,30.21,10.0,Calm,Calm,-,N/A,,Unknown,0,2012-11-09 01:15:00
8:35 PM,37.4,32.0,81,30.21,10.0,Calm,Calm,-,N/A,,Unknown,0,2012-11-09 01:35:00
8:55 PM,33.8,32.0,93,30.21,10.0,Calm,Calm,-,N/A,,Unknown,0,2012-11-09 01:55:00
9:15 PM,32.0,32.0,100,30.21,10.0,Calm,Calm,-,N/A,,Unknown,0,2012-11-09 02:15:00
9:35 PM,32.0,32.0,100,30.21,10.0,Calm,Calm,-,N/A,,Unknown,0,2012-11-09 02:35:00
9:55 PM,32.0,32.0,100,30.22,10.0,Calm,Calm,-,N/A,,Unknown,0,2012-11-09 02:55:00
10:15 PM,33.8,32.0,93,30.22,10.0,Calm,Calm,-,N/A,,Unknown,0,2012-11-09 03:15:00
10:35 PM,32.0,32.0,100,30.22,8.0,Calm,Calm,-,N/A,,Unknown,0,2012-11-09 03:35:00
10:55 PM,32.0,30.2,93,30.22,8.0,Calm,Calm,-,N/A,,Unknown,0,2012-11-09 03:55:00
11:15 PM,30.2,28.4,93,30.22,7.0,Calm,Calm,-,N/A,,Unknown,0,2012-11-09 04:15:00
11:35 PM,32.0,30.2,93,30.22,8.0,Calm,Calm,-,N/A,,Unknown,0,2012-11-09 04:35:00
11:55 PM,28.4,28.4,100,30.22,8.0,Calm,Calm,-,N/A,,Unknown,0,2012-11-09 04:55:00